Showing default

YAOGAN-36 02A, 54042

Orbit data source: Space-Track

YAOGAN-36 02A, 54042 is a payload satellite owned by PLA GAD (CN) in LEO that was launched on Fri, 14 Oct 2022 UTC via a CHANG ZHENG 2D launch vehicle from the Xichang Space Center, China (XSC). Payload-class satellites include a variety of spacecraft equipped with specific instruments for various scientific and technological missions. These include communications satellites like Starlink; space stations such as the ISS; scientific satellites like the Hubble; Earth observation satellites from companies like Planet Labs, Umbra, and HawkEye 360; GPS; miniature CubeSats for education and research; and military/defense satellites.

Loading next visibility...
Identifier
54042, 2022-133A
Orbit
LEO
Country
Flag of CNCN / PRC
Related business
Manufacturer
DFH
Mission
Operational Defense Sigint
Bus & Motor
Unknown
Mass
~300 kg wet, ~300 kg dry
Launch date (UTC)
2022-10-14 (4 years ago)
Launch vehicle
CHANG ZHENG 2D
Launch site
Xichang Space Center, China (XSC)
Object type
Payload
Rocket body
Debris
Shape & HBR
Box + 2 Pan, 2.5 m
Radar Cross Section
11.063 m², Large (>1 m²)

Expand to show TLE details & history
Last TLE update: 1 day ago

TLE from 1 day ago
0 YAOGAN-36 02A
1 54042U 22133A   26172.24628032  .00007053  00000-0  29183-3 0  9992
2 54042  35.0069  94.2584 0026352 240.6954 119.1126 15.22927529205372
Epoch: 2026-06-21T05:54Z
TLE epoch observation values (Epoch: 2026-06-21T05:54:38.619Z)
Latitude
-0.00005°
Longitude
96.14811°
Altitude
504.772 km
Speed
7.609 km/s
True Right ascension
06h 17m 01s
True Declination
0° 00' 00"
Sunlit
Object was in daylight at epoch
Visualization orbit readout
Latitude
Unknown
Longitude
Unknown
Altitude
Unknown
Speed
Unknown
Apparent Right ascension
Unknown
Apparent Declination
Unknown
Sunlit
N/A
Visualization observer readout
Local Sidereal Time
21:31:47
Azimuth
Unknown
Elevation
Unknown
Doppler factor
Unknown
Orbital elements
Apogee altitude
518.391 km
Perigee altitude
482.139 km
Semi-major axis
6,878.402 km
Eccentricity
0.00264
Inclination
35.0069°
RAAN
94.2584°
Arg. of periapsis
240.6954°
True anomaly
119.376°
Mean anomaly
119.1126°
Eccentric anomaly
119.24434°
Mean motion
3.80463 °/min
Orbital period
94.62 mins
BSTAR
0.00029183
Loading maneuver chart data...
Computing Atmospheric mass density...
Loading historical data...
Loading historical data...
Loading historical data...
Loading historical data...
Loading historical data...
Loading historical data...
Loading historical data...
Other satellites on launch #133 in the year 2022 (2022-10-14 UTC)

Documentation

Showing up to 5 results
|